Wind_Speed
54 56 55 54 51 51 50 50 46 45 46 48 54 56 64 73 75 80 84 86 86 88 90 89 87 89 88 85 84 82 80 79
42 42 44 47 46 47 47 45 47 50 52 55 58 63 71 76 80 86 90 92 94 91 88 89 89 87 87 87 88 89 90 90
38 39 43 44 47 48 47 49 53 57 59 61 65 71 72 78 82 84 86 86 87 87 88 88 88 91 91 91 91 93 96 97
37 37 39 41 43 47 51 54 55 57 59 61 64 67 70 74 77 78 81 83 85 87 88 90 93 93 95 96 98 98 102 109
35 38 40 42 44 46 49 50 53 55 56 58 60 63 67 72 75 77 80 84 88 90 92 93 96 96 99 102 107 111 113 117
28 33 34 36 38 41 45 47 49 53 56 60 62 65 70 74 77 79 81 85 86 88 90 94 99 104 107 111 117 120 123 128
28 31 33 37 40 43 47 50 53 56 59 62 64 67 69 72 75 76 77 81 86 90 95 100 105 111 114 120 125 129 131 135
31 34 38 41 45 48 51 53 56 58 60 62 63 66 68 71 74 78 81 85 90 96 102 108 113 118 122 127 131 132 128 126
39 42 45 48 50 51 53 55 57 59 61 63 65 68 71 73 77 81 85 91 97 104 110 115 119 122 125 128 126 121 120 115
43 46 50 53 56 58 61 62 63 63 65 67 68 69 70 75 80 86 93 100 106 110 114 116 119 119 122 120 117 111 112 109
48 52 55 57 60 62 63 63 63 64 64 64 65 69 75 81 87 95 101 105 107 111 113 116 119 118 116 116 116 109 103 97
53 54 55 58 60 62 62 61 61 61 62 64 69 75 81 88 93 100 105 109 116 116 118 119 116 118 118 115 107 101 95 90
53 53 54 55 57 58 58 58 60 62 64 69 75 81 87 93 99 107 113 117 120 123 119 117 118 118 112 104 98 93 90 85
54 54 54 55 55 56 59 61 63 66 70 76 82 87 96 101 106 113 120 121 124 120 120 120 118 112 101 96 91 89 84 79
60 61 60 58 58 60 64 65 68 72 77 82 88 94 101 106 114 122 122 126 122 120 121 119 111 102 94 90 86 82 77 73
63 62 63 63 62 62 64 68 74 79 84 89 96 103 108 113 124 127 128 124 123 123 119 112 101 94 89 85 80 76 72 69
66 68 67 64 63 65 68 74 80 86 93 96 104 110 115 121 128 130 124 123 121 116 111 99 93 87 83 78 75 73 69 64
74 75 72 66 67 70 76 83 89 93 97 103 110 114 119 128 130 125 122 122 117 110 98 92 87 82 77 73 71 68 64 61
78 78 74 72 75 79 85 89 93 98 104 110 114 118 124 130 125 123 122 119 112 101 93 87 82 77 72 70 67 64 61 56
Wind_Direction
268 271 275 277 278 280 278 276 269 265 267 251 260 261 263 273 279 278 283 285 286 286 287 287 288 289 291 290 289 286 285 285
274 274 274 275 277 278 276 273 269 271 272 274 271 268 269 272 276 278 280 282 283 285 286 289 290 290 290 290 289 288 288 287
277 278 279 281 280 282 283 280 279 277 278 277 276 275 276 273 278 281 283 284 288 291 291 290 290 290 289 289 289 288 288 287
281 280 280 281 283 281 281 281 281 280 280 280 281 280 279 279 282 284 287 289 290 290 291 291 290 291 291 290 289 287 288 289
287 289 287 284 285 283 281 277 276 277 279 280 281 281 281 283 286 287 288 290 291 291 290 290 290 290 291 292 294 293 293 295
285 281 286 288 286 283 281 283 285 284 283 284 285 285 286 288 290 291 290 291 293 294 294 296 298 299 298 301 302 301 298 295
284 286 288 287 287 288 288 290 290 290 291 292 293 292 291 292 294 296 295 296 297 300 301 301 302 303 303 302 299 296 295 294
298 297 297 298 300 300 299 298 296 296 295 295 297 299 299 298 297 298 300 303 304 303 302 301 301 300 298 299 297 296 296 294
296 302 304 301 299 298 300 299 299 298 299 300 300 299 301 303 304 305 304 302 301 302 303 302 301 300 301 301 300 299 297 296
306 303 301 302 303 304 304 303 303 302 303 304 306 308 306 305 304 304 304 304 304 304 304 303 303 303 302 303 303 302 301 301
310 308 305 303 302 302 303 302 301 301 303 303 304 303 303 303 304 306 307 307 307 308 309 309 307 308 308 307 307 306 303 302
315 310 305 302 301 300 301 301 299 299 300 302 303 303 303 304 306 309 311 311 314 315 314 313 312 312 312 311 308 307 306 305
314 310 307 305 303 303 303 303 302 304 303 304 304 305 307 308 310 313 316 317 319 318 315 315 316 315 313 311 309 308 307 306
319 315 312 308 307 307 307 306 305 304 304 306 306 307 310 313 315 318 320 320 319 318 317 318 317 315 313 312 310 309 308 306
322 320 315 312 311 309 306 305 306 306 308 309 311 314 316 318 321 322 320 320 320 319 319 319 317 314 314 312 311 309 307 306
321 319 315 311 308 306 307 308 309 310 311 314 315 316 318 321 322 322 321 320 319 319 320 319 316 315 314 313 311 309 309 308
320 320 318 313 309 310 310 309 312 314 316 316 317 319 321 321 322 320 320 319 319 321 320 318 316 316 315 313 312 310 310 310
321 321 319 315 312 311 312 315 317 316 316 317 319 320 320 321 320 320 320 320 322 322 320 319 318 316 315 314 311 310 310 311
320 318 316 315 315 316 317 317 317 317 317 318 319 320 321 320 320 321 321 322 323 322 321 319 318 317 315 313 312 312 312 312
Height
10665 10665 10664 10660 10658 10654 10653 10650 10646 10640 10639 10636 10630 10626 10617 10611 10607 10602 10599 10594 10588 10582 10576 10570 10565 10559 10554 10548 10542 10537 10534 10531
10656 10655 10653 10650 10649 10647 10643 10638 10635 10634 10631 10626 10621 10614 10607 10601 10595 10589 10584 10577 10570 10563 10557 10552 10547 10540 10534 10528 10520 10514 10508 10507
10645 10645 10643 10643 10639 10634 10634 10631 10625 10622 10619 10614 10608 10602 10595 10590 10585 10578 10569 10560 10551 10544 10538 10533 10526 10518 10512 10506 10501 10492 10485 10481
10638 10637 10636 10635 10633 10629 10624 10620 10615 10610 10606 10601 10595 10589 10583 10577 10570 10562 10553 10543 10533 10526 10521 10514 10506 10497 10489 10483 10475 10467 10458 10446
10632 10629 10627 10625 10624 10620 10616 10610 10605 10601 10595 10590 10584 10578 10570 10562 10555 10547 10538 10527 10518 10510 10502 10493 10482 10474 10464 10455 10443 10434 10425 10412
10626 10621 10619 10614 10610 10605 10602 10599 10595 10589 10583 10577 10571 10565 10556 10547 10539 10530 10522 10509 10500 10490 10479 10466 10455 10443 10434 10422 10404 10392 10383 10368
10617 10614 10611 10607 10601 10596 10592 10588 10582 10576 10570 10562 10555 10548 10541 10532 10522 10511 10501 10490 10479 10467 10454 10442 10428 10413 10399 10385 10371 10360 10346 10330
10609 10605 10601 10596 10590 10584 10580 10574 10568 10562 10555 10547 10540 10531 10522 10512 10502 10492 10482 10471 10457 10444 10431 10417 10403 10389 10373 10356 10339 10324 10312 10294
10599 10594 10588 10582 10578 10573 10567 10561 10554 10547 10539 10532 10524 10514 10504 10493 10482 10471 10461 10451 10438 10424 10409 10390 10374 10357 10339 10320 10303 10285 10261 10250
10590 10584 10577 10571 10563 10557 10550 10543 10536 10528 10520 10512 10504 10495 10486 10477 10467 10456 10446 10432 10417 10401 10385 10366 10346 10331 10308 10284 10263 10249 10228 10211
10580 10573 10565 10558 10551 10545 10538 10531 10523 10516 10508 10501 10494 10484 10473 10463 10452 10441 10427 10411 10394 10375 10354 10332 10309 10289 10269 10249 10224 10209 10194 10180
10571 10564 10557 10549 10542 10534 10527 10520 10512 10505 10498 10491 10481 10470 10459 10447 10434 10418 10401 10381 10360 10338 10318 10296 10274 10251 10228 10209 10191 10174 10160 10148
10562 10553 10546 10538 10530 10522 10513 10506 10498 10492 10484 10476 10465 10454 10441 10426 10409 10391 10371 10348 10324 10302 10282 10261 10239 10218 10199 10180 10164 10149 10135 10124
10549 10540 10532 10524 10516 10508 10499 10491 10484 10476 10467 10456 10445 10432 10418 10401 10383 10362 10339 10319 10298 10275 10254 10232 10211 10190 10172 10156 10139 10125 10114 10104
10536 10527 10518 10509 10501 10493 10484 10476 10467 10458 10447 10436 10423 10408 10391 10374 10353 10333 10312 10291 10269 10248 10226 10204 10183 10163 10148 10131 10118 10105 10094 10084
10523 10514 10503 10495 10487 10478 10468 10459 10448 10437 10426 10413 10398 10382 10364 10345 10324 10303 10282 10261 10241 10220 10198 10177 10158 10141 10125 10110 10097 10085 10075 10065
10510 10500 10489 10481 10472 10462 10453 10442 10429 10416 10402 10388 10373 10355 10336 10317 10298 10277 10256 10237 10219 10198 10177 10156 10138 10121 10106 10092 10079 10067 10058 10049
10493 10483 10474 10465 10456 10447 10434 10420 10407 10394 10380 10366 10350 10333 10312 10292 10274 10254 10232 10210 10190 10172 10153 10134 10117 10102 10088 10075 10063 10053 10043 10035
10478 10468 10458 10448 10438 10427 10414 10402 10390 10376 10360 10345 10328 10310 10290 10270 10247 10224 10205 10185 10165 10146 10130 10113 10098 10084 10071 10058 10046 10037 10028 10020